GW4717 Weather Reports


Display with metric or nautical units.
time (UTC)temp
F
wind
direction
speed
MPH
gust
MPH
rain 1hr
in
rain 24hr
in
rain mn
in
humidity
%
barometer
mb
20260510061024 43 138 0.0 0.0 0.00 0.00 0.00 93 1015.1
20260510060521 44 290 0.0 0.0 0.00 0.00 0.00 93 1015.0
20260510060017 44 290 0.0 0.0 0.00 0.00 0.00 94 1014.9
20260510055513 43 290 1.0 1.0 0.00 0.00 0.00 94 1015.2
20260510055011 43 290 0.0 1.0 0.00 0.00 0.00 93 1015.1
20260510054507 43 291 0.0 1.0 0.00 0.00 0.00 93 1014.9
20260510054002 43 292 0.0 0.0 0.00 0.00 0.00 93 1015.1
20260510053457 43 292 0.0 1.0 0.00 0.00 0.00 92 1015.2
20260510052953 43 292 0.0 1.0 0.00 0.00 0.00 92 1015.2
20260510052450 43 292 0.0 1.0 0.00 0.00 0.00 93 1015.1
20260510051946 43 293 0.0 2.0 0.00 0.00 0.00 93 1015.1
20260510051442 43 278 0.0 2.0 0.00 0.00 0.00 93 1015.2
20260510050938 43 235 0.0 0.0 0.00 0.00 0.00 93 1015.3
20260510050435 43 235 0.0 0.0 0.00 0.00 0.00 93 1015.4
20260510045933 43 235 0.0 0.0 0.00 0.00 0.00 92 1015.3
20260510045430 43 235 0.0 0.0 0.00 0.00 0.00 92 1015.2
20260510044926 43 235 0.0 0.0 0.00 0.00 0.00 91 1015.5
20260510044423 44 235 0.0 0.0 0.00 0.00 0.00 91 1015.5
20260510043920 44 235 0.0 0.0 0.00 0.00 0.00 90 1015.5
20260510043416 44 235 0.0 0.0 0.00 0.00 0.00 90 1015.4
20260510042914 44 235 0.0 0.0 0.00 0.00 0.00 89 1015.4
20260510042410 44 235 0.0 0.0 0.00 0.00 0.00 89 1015.4
20260510041906 44 235 0.0 0.0 0.00 0.00 0.00 89 1015.3
20260510041403 44 235 0.0 1.0 0.00 0.00 0.00 89 1015.3
20260510040901 45 235 0.0 0.0 0.00 0.00 0.00 89 1015.0
20260510040358 45 235 0.0 0.0 0.00 0.00 0.00 89 1015.3
20260510035853 45 235 0.0 0.0 0.00 0.00 0.00 88 1015.2
20260510035349 45 235 0.0 0.0 0.00 0.00 0.00 87 1015.3
20260510034844 46 235 0.0 0.0 0.00 0.00 0.00 87 1015.3
20260510034343 46 235 0.0 0.0 0.00 0.00 0.00 87 1015.2
20260510033839 46 235 0.0 0.0 0.00 0.00 0.00 86 1015.0
20260510033336 46 235 0.0 0.0 0.00 0.00 0.00 86 1015.0
20260510032832 46 235 1.0 1.0 0.00 0.00 0.00 86 1015.2
20260510032329 47 240 0.0 0.0 0.00 0.00 0.00 85 1015.2
20260510031825 47 240 0.0 0.0 0.00 0.00 0.00 85 1015.1
20260510031320 46 240 0.0 0.0 0.00 0.00 0.00 85 1015.1
20260510030815 47 240 0.0 0.0 0.00 0.00 0.00 84 1015.2
20260510030312 48 295 0.0 0.0 0.00 0.00 0.00 81 1015.1
20260510025809 48 295 0.0 0.0 0.00 0.00 0.00 82 1015.1
20260510025306 48 295 0.0 1.0 0.00 0.00 0.00 82 1015.0
20260510024803 47 295 0.0 0.0 0.00 0.00 0.00 83 1015.0
20260510024300 47 295 0.0 0.0 0.00 0.00 0.00 84 1015.1
20260510023755 47 295 0.0 0.0 0.00 0.00 0.00 83 1014.9
20260510023247 48 295 0.0 0.0 0.00 0.00 0.00 83 1014.9
20260510022744 48 295 0.0 0.0 0.00 0.00 0.00 82 1014.8
20260510022243 49 295 0.0 0.0 0.00 0.00 0.00 80 1014.9
20260510021742 49 295 0.0 0.0 0.00 0.00 0.00 80 1014.6
20260510021241 49 295 0.0 0.0 0.00 0.00 0.00 79 1014.6
20260510020737 50 295 0.0 0.0 0.00 0.00 0.00 79 1014.5
20260510020236 50 294 0.0 0.0 0.00 0.00 0.00 79 1014.6
20260510015733 50 295 0.0 0.0 0.00 0.00 0.00 78 1014.2
20260510015229 51 309 0.0 0.0 0.00 0.00 0.00 77 1014.3
20260510014724 51 309 0.0 0.0 0.00 0.00 0.00 75 1014.0
20260510014222 51 309 0.0 0.0 0.00 0.00 0.00 75 1013.9
20260510013717 51 311 0.0 0.0 0.00 0.00 0.00 75 1013.9
20260510013213 52 311 0.0 0.0 0.00 0.00 0.00 75 1013.8
20260510012708 52 311 0.0 0.0 0.00 0.00 0.00 73 1013.8
20260510012203 52 311 0.0 0.0 0.00 0.00 0.00 73 1013.6
20260510011658 52 311 0.0 0.0 0.00 0.00 0.00 73 1013.6
20260510011154 52 311 0.0 0.0 0.00 0.00 0.00 73 1013.7
20260510010651 53 313 0.0 0.0 0.00 0.00 0.00 72 1013.5
20260510010148 53 313 0.0 0.0 0.00 0.00 0.00 71 1013.3
20260510005644 54 313 0.0 0.0 0.00 0.00 0.00 70 1013.4
20260510005141 54 313 0.0 0.0 0.00 0.00 0.00 69 1013.4
20260510004639 55 313 0.0 0.0 0.00 0.00 0.00 68 1013.2
20260510004137 55 313 0.0 0.0 0.00 0.00 0.00 67 1013.1
20260510003634 56 314 0.0 0.0 0.00 0.00 0.00 65 1013.1
20260510003129 56 314 0.0 0.0 0.00 0.00 0.00 64 1013.0
20260510002629 57 301 0.0 0.0 0.00 0.00 0.00 64 1012.7
20260510002127 58 301 0.0 0.0 0.00 0.00 0.00 63 1012.5
20260510001623 59 301 1.0 1.0 0.00 0.00 0.00 59 1012.6
20260510001122 59 312 1.0 2.0 0.00 0.00 0.00 59 1012.5
20260510000622 59 313 1.0 2.0 0.00 0.00 0.00 57 1012.3
20260510000120 60 312 1.0 2.0 0.00 0.00 0.00 57 1012.2
20260509235616 60 310 1.0 2.0 0.00 0.00 0.00 56 1012.1
20260509235113 61 300 1.0 2.0 0.00 0.00 0.00 55 1012.2
20260509234609 61 298 1.0 2.0 0.00 0.00 0.00 53 1012.1
20260509234107 61 298 1.0 1.0 0.00 0.00 0.00 55 1012.2
20260509233604 62 298 1.0 1.0 0.00 0.00 0.00 54 1012.2
20260509233101 63 279 0.0 0.0 0.00 0.00 0.00 49 1012.3
20260509232557 64 279 0.0 0.0 0.00 0.00 0.00 50 1012.3
20260509232055 64 19 4.0 6.0 0.00 0.00 0.00 48 1012.2
20260509231551 64 311 4.0 6.0 0.00 0.00 0.00 47 1012.4
20260509231049 64 313 1.0 3.0 0.00 0.00 0.00 47 1012.4
20260509230545 65 306 2.0 2.0 0.00 0.00 0.00 47 1012.2
20260509230043 66 320 6.0 10.0 0.00 0.00 0.00 45 1012.1
20260509225538 67 301 2.0 3.0 0.00 0.00 0.00 43 1012.3
20260509225033 68 313 3.0 4.0 0.00 0.00 0.00 43 1012.3
20260509224529 67 248 1.0 1.0 0.00 0.00 0.00 44 1012.3
20260509224026 67 326 5.0 6.0 0.00 0.00 0.00 42 1012.2
20260509223523 67 293 0.0 1.0 0.00 0.00 0.00 43 1012.0
20260509223021 67 236 1.0 8.0 0.00 0.00 0.00 42 1012.1
20260509222517 69 312 3.0 4.0 0.00 0.00 0.00 41 1012.0
20260509222012 69 300 2.0 3.0 0.00 0.00 0.00 39 1011.8
20260509221509 70 272 0.0 3.0 0.00 0.00 0.00 38 1012.1
20260509221004 69 285 4.0 6.0 0.00 0.00 0.00 38 1012.2
20260509220501 67 297 2.0 4.0 0.00 0.00 0.00 38 1011.9
20260509215957 68 260 0.0 1.0 0.00 0.00 0.00 39 1011.9
20260509215452 67 256 1.0 1.0 0.00 0.00 0.00 40 1011.9
20260509214950 67 322 3.0 4.0 0.00 0.00 0.00 38 1011.8
20260509214447 67 248 1.0 3.0 0.00 0.00 0.00 39 1011.7
20260509213944 67 307 3.0 3.0 0.00 0.00 0.00 39 1011.8
20260509213440 67 282 1.0 3.0 0.00 0.00 0.00 40 1011.8
20260509212937 67 304 0.0 1.0 0.00 0.00 0.00 39 1011.7
20260509212435 67 314 0.0 2.0 0.00 0.00 0.00 39 1011.5
20260509211930 68 200 1.0 2.0 0.00 0.00 0.00 39 1011.2
20260509211426 68 316 3.0 6.0 0.00 0.00 0.00 39 1011.2
20260509210923 70 135 0.0 3.0 0.00 0.00 0.00 41 1011.2
20260509210420 69 254 0.0 2.0 0.00 0.00 0.00 38 1011.1
20260509205915 69 328 2.0 3.0 0.00 0.00 0.00 39 1011.1
20260509205415 68 335 0.0 2.0 0.00 0.00 0.00 43 1011.1
20260509204912 69 311 2.0 4.0 0.00 0.00 0.00 40 1011.1
20260509204408 72 128 4.0 4.0 0.00 0.00 0.00 39 1011.2
20260509203904 71 316 3.0 4.0 0.00 0.00 0.00 40 1011.0
20260509203401 69 171 4.0 6.0 0.00 0.00 0.00 40 1011.1
20260509202858 68 313 2.0 3.0 0.00 0.00 0.00 40 1011.1
20260509202354 68 295 1.0 4.0 0.00 0.00 0.00 41 1011.1
20260509201849 68 306 2.0 3.0 0.00 0.00 0.00 41 1011.2
20260509201345 67 264 2.0 6.0 0.00 0.00 0.00 43 1011.3
20260509200842 67 321 1.0 4.0 0.00 0.00 0.00 42 1011.0
20260509200336 67 137 2.0 4.0 0.00 0.00 0.00 43 1011.0
20260509195834 67 198 2.0 6.0 0.00 0.00 0.00 44 1011.1
20260509195333 67 151 2.0 3.0 0.00 0.00 0.00 44 1010.9
20260509194833 68 252 2.0 6.0 0.00 0.00 0.00 43 1011.0
20260509194329 69 345 4.0 7.0 0.00 0.00 0.00 40 1011.1
20260509193826 70 317 3.0 6.0 0.00 0.00 0.00 37 1011.0
20260509193321 72 315 4.0 8.0 0.00 0.00 0.00 36 1011.1
20260509192817 73 321 4.0 8.0 0.00 0.00 0.00 37 1011.2
20260509192314 73 187 1.0 6.0 0.00 0.00 0.00 39 1011.0
20260509191809 73 300 2.0 10.0 0.00 0.00 0.00 39 1011.1
20260509191305 72 279 4.0 8.0 0.00 0.00 0.00 35 1011.2
20260509190801 71 278 6.0 13.0 0.00 0.00 0.00 39 1011.2
20260509190258 71 294 7.0 10.0 0.00 0.00 0.00 39 1011.2
20260509185755 71 129 4.0 13.0 0.00 0.00 0.00 39 1011.3
20260509185252 70 135 2.0 7.0 0.00 0.00 0.00 43 1011.5
20260509184749 68 227 1.0 6.0 0.00 0.00 0.00 44 1011.6
20260509184247 69 356 5.0 14.0 0.00 0.00 0.00 39 1011.6
20260509183742 69 306 2.0 8.0 0.00 0.00 0.00 41 1011.6
20260509183238 71 143 5.0 7.0 0.00 0.00 0.00 44 1011.6
20260509182734 71 323 3.0 4.0 0.00 0.00 0.00 42 1011.7
20260509182232 70 162 2.0 4.0 0.00 0.00 0.00 45 1011.3
20260509181728 67 305 2.0 3.0 0.00 0.00 0.00 46 1011.8
20260509181226 68 314 4.0 6.0 0.00 0.00 0.00 46 1011.7
20260509180723 67 154 2.0 6.0 0.00 0.00 0.00 49 1011.7
20260509180219 69 146 2.0 4.0 0.00 0.00 0.00 47 1011.8
20260509175715 67 258 1.0 8.0 0.00 0.00 0.00 52 1012.1
20260509175212 67 199 3.0 6.0 0.00 0.00 0.00 49 1012.0
20260509174707 68 180 2.0 6.0 0.00 0.00 0.00 51 1012.1
20260509174203 65 190 0.0 2.0 0.00 0.00 0.00 55 1012.1
20260509173659 65 146 2.0 6.0 0.00 0.00 0.00 51 1012.2
20260509173155 64 279 1.0 4.0 0.00 0.00 0.00 53 1012.5
20260509172651 64 113 1.0 1.0 0.00 0.00 0.00 55 1012.3
20260509172148 63 311 2.0 3.0 0.00 0.00 0.00 54 1012.4
20260509171643 63 176 2.0 3.0 0.00 0.00 0.00 54 1012.5
20260509171140 63 300 0.0 2.0 0.00 0.00 0.00 54 1012.7
20260509170636 63 325 2.0 3.0 0.00 0.00 0.00 53 1012.5
20260509170132 64 227 4.0 6.0 0.00 0.00 0.00 53 1012.6
20260509165631 64 145 3.0 3.0 0.00 0.00 0.00 56 1012.3
20260509165127 63 279 0.0 2.0 0.00 0.00 0.00 55 1012.4
20260509164623 63 262 1.0 3.0 0.00 0.00 0.00 54 1012.3
20260509164119 62 129 1.0 3.0 0.00 0.00 0.00 57 1012.2
20260509163617 62 123 3.0 4.0 0.00 0.00 0.00 55 1012.4
20260509163112 63 164 5.0 6.0 0.00 0.00 0.00 53 1012.3
20260509162610 62 93 2.0 11.0 0.00 0.00 0.00 54 1012.4
20260509162105 63 334 2.0 6.0 0.00 0.00 0.00 54 1012.4
20260509161602 63 331 2.0 4.0 0.00 0.00 0.00 51 1012.3
20260509161057 64 4 2.0 2.0 0.00 0.00 0.00 50 1012.2
20260509160553 64 150 0.0 4.0 0.00 0.00 0.00 49 1012.2
20260509160048 65 153 2.0 7.0 0.00 0.00 0.00 50 1012.2
20260509155544 65 115 6.0 11.0 0.00 0.00 0.00 53 1012.2
20260509155041 64 142 6.0 10.0 0.00 0.00 0.00 53 1012.4
20260509154537 64 130 5.0 11.0 0.00 0.00 0.00 56 1012.1
20260509154035 63 132 6.0 10.0 0.00 0.00 0.00 57 1012.3
20260509153532 63 158 4.0 7.0 0.00 0.00 0.00 55 1012.3
20260509153029 63 171 3.0 6.0 0.00 0.00 0.00 55 1012.3
20260509152524 63 135 5.0 9.0 0.00 0.00 0.00 51 1012.3
20260509152021 64 319 2.0 3.0 0.00 0.00 0.00 53 1012.6
20260509151517 64 126 2.0 3.0 0.00 0.00 0.00 58 1012.4
20260509151015 64 138 0.0 0.0 0.00 0.00 0.00 55 1012.4
20260509150513 64 332 0.0 1.0 0.00 0.00 0.00 62 1012.3
20260509150012 64 62 0.0 0.0 0.00 0.00 0.00 61 1012.3
20260509145507 62 271 0.0 2.0 0.00 0.00 0.00 56 1012.4
20260509145001 62 140 2.0 2.0 0.00 0.00 0.00 56 1012.6
20260509144459 61 129 1.0 1.0 0.00 0.00 0.00 61 1012.7
20260509143950 60 320 2.0 2.0 0.00 0.00 0.00 61 1012.7
20260509143447 60 135 1.0 2.0 0.00 0.00 0.00 58 1012.5
20260509142944 60 309 1.0 2.0 0.00 0.00 0.00 58 1012.4
20260509142440 60 210 2.0 4.0 0.00 0.00 0.00 60 1012.7
20260509141936 59 146 1.0 4.0 0.00 0.00 0.00 65 1012.5
20260509141433 59 258 2.0 4.0 0.00 0.00 0.00 64 1012.6
20260509140929 58 145 3.0 6.0 0.00 0.00 0.00 66 1012.6
20260509140426 58 235 2.0 4.0 0.00 0.00 0.00 68 1013.0
20260509135925 58 340 3.0 6.0 0.00 0.00 0.00 66 1013.2
20260509135421 58 240 2.0 3.0 0.00 0.00 0.00 65 1013.2
20260509134919 56 201 1.0 3.0 0.00 0.00 0.00 69 1013.1
20260509134416 56 330 3.0 6.0 0.00 0.00 0.00 67 1013.4
20260509133913 55 227 7.0 10.0 0.00 0.00 0.00 67 1013.5
20260509133410 55 267 4.0 8.0 0.00 0.00 0.00 68 1013.5
20260509132908 54 275 4.0 7.0 0.00 0.00 0.00 69 1013.6
20260509132406 54 316 5.0 6.0 0.00 0.00 0.00 68 1013.7
20260509131903 54 229 2.0 8.0 0.00 0.00 0.00 69 1013.9
20260509131400 54 171 4.0 8.0 0.00 0.00 0.00 69 1013.7
20260509130856 54 131 3.0 7.0 0.00 0.00 0.00 71 1013.7
20260509130351 54 130 3.0 6.0 0.00 0.00 0.00 72 1013.9
20260509125849 53 138 1.0 6.0 0.00 0.00 0.00 71 1013.8
20260509125345 53 142 2.0 3.0 0.00 0.00 0.00 70 1014.0
20260509124841 53 300 3.0 4.0 0.00 0.00 0.00 70 1014.0
20260509124339 52 313 3.0 4.0 0.00 0.00 0.00 70 1013.8
20260509123837 52 345 3.0 4.0 0.00 0.00 0.00 71 1013.7
20260509123333 51 309 2.0 4.0 0.00 0.00 0.00 73 1013.6
20260509122829 51 311 2.0 3.0 0.00 0.00 0.00 75 1013.7
20260509122326 51 154 1.0 1.0 0.00 0.00 0.00 76 1013.7
20260509121823 50 284 0.0 0.0 0.00 0.00 0.00 80 1013.6
20260509121320 49 334 0.0 0.0 0.00 0.00 0.00 79 1013.6
20260509120819 49 335 0.0 0.0 0.00 0.00 0.00 79 1013.6
20260509120316 48 335 0.0 0.0 0.00 0.00 0.00 79 1013.6
20260509115814 48 335 0.0 0.0 0.00 0.00 0.00 82 1013.6
20260509115311 47 335 0.0 0.0 0.00 0.00 0.00 82 1013.8
20260509114809 46 335 0.0 0.0 0.00 0.00 0.00 81 1013.8
20260509114307 46 335 0.0 0.0 0.00 0.00 0.00 83 1013.7
20260509113806 46 335 0.0 0.0 0.00 0.00 0.00 86 1014.0
20260509113302 46 335 0.0 0.0 0.00 0.00 0.00 86 1014.0
20260509112759 45 335 0.0 0.0 0.00 0.00 0.00 87 1013.8
20260509112256 45 335 0.0 0.0 0.00 0.00 0.00 85 1013.9
20260509111753 45 335 0.0 0.0 0.00 0.00 0.00 86 1013.9
20260509111250 44 335 0.0 0.0 0.00 0.00 0.00 87 1013.9
20260509110748 44 335 0.0 0.0 0.00 0.00 0.00 86 1013.8
20260509110244 44 335 0.0 0.0 0.00 0.00 0.00 86 1013.8
20260509105742 44 335 0.0 0.0 0.00 0.00 0.00 86 1014.0
20260509105240 44 335 0.0 0.0 0.00 0.00 0.00 85 1013.8
20260509104736 44 335 0.0 0.0 0.00 0.00 0.00 87 1013.9
20260509104233 44 335 0.0 0.0 0.00 0.00 0.00 87 1013.9
20260509103731 43 335 0.0 0.0 0.00 0.00 0.00 85 1013.8
20260509103228 43 335 0.0 0.0 0.00 0.00 0.00 85 1014.0
20260509102726 43 335 0.0 0.0 0.00 0.00 0.00 87 1013.9
20260509102222 43 335 0.0 0.0 0.00 0.00 0.00 86 1013.8
20260509101719 43 335 0.0 0.0 0.00 0.00 0.00 86 1013.7
20260509101216 43 335 0.0 0.0 0.00 0.00 0.00 86 1013.8
20260509100713 43 335 0.0 0.0 0.00 0.00 0.00 86 1013.8
20260509100210 43 335 0.0 0.0 0.00 0.00 0.00 85 1013.8
20260509095707 43 335 0.0 0.0 0.00 0.00 0.00 85 1013.8
20260509095205 43 335 0.0 0.0 0.00 0.00 0.00 85 1013.9
20260509094701 43 335 0.0 0.0 0.00 0.00 0.00 84 1013.9
20260509094158 43 335 0.0 0.0 0.00 0.00 0.00 84 1013.9
20260509093656 43 335 0.0 0.0 0.00 0.00 0.00 84 1013.9
20260509093152 44 335 0.0 0.0 0.00 0.00 0.00 82 1013.7
20260509092650 44 335 0.0 0.0 0.00 0.00 0.00 80 1013.8
20260509092149 44 335 0.0 0.0 0.00 0.00 0.00 79 1013.8
20260509091646 45 335 0.0 0.0 0.00 0.00 0.00 80 1013.9
20260509091142 45 335 0.0 0.0 0.00 0.00 0.00 80 1014.1
20260509090640 46 335 0.0 0.0 0.00 0.00 0.00 77 1013.9
20260509090137 46 335 0.0 0.0 0.00 0.00 0.00 77 1013.9
20260509085635 46 335 0.0 0.0 0.00 0.00 0.00 76 1014.1
20260509085130 45 335 0.0 0.0 0.00 0.00 0.00 78 1014.1
20260509084628 45 335 0.0 0.0 0.00 0.00 0.00 77 1014.1
20260509084125 45 335 0.0 0.0 0.00 0.00 0.00 77 1014.0
20260509083622 45 341 0.0 0.0 0.00 0.00 0.00 78 1014.2
20260509083118 45 113 0.0 0.0 0.00 0.00 0.00 78 1014.2
20260509082616 46 113 0.0 0.0 0.00 0.00 0.00 77 1014.3
20260509082113 46 113 0.0 0.0 0.00 0.00 0.00 76 1014.0
20260509081610 47 47 0.0 0.0 0.00 0.00 0.00 75 1014.2
20260509081107 47 38 0.0 0.0 0.00 0.00 0.00 74 1014.1
20260509080605 47 132 0.0 0.0 0.00 0.00 0.00 75 1013.9
20260509080103 46 319 0.0 0.0 0.00 0.00 0.00 74 1014.1
20260509075601 47 319 0.0 0.0 0.00 0.00 0.00 76 1013.9
20260509075058 47 320 0.0 0.0 0.00 0.00 0.00 74 1014.3
20260509074555 46 321 0.0 0.0 0.00 0.00 0.00 73 1014.3
20260509074052 46 320 0.0 0.0 0.00 0.00 0.00 74 1014.5
20260509073548 46 320 0.0 0.0 0.00 0.00 0.00 74 1014.3
20260509073044 46 326 0.0 0.0 0.00 0.00 0.00 76 1014.3
20260509072540 46 326 0.0 0.0 0.00 0.00 0.00 75 1014.7
20260509072038 46 326 0.0 0.0 0.00 0.00 0.00 77 1014.3
20260509071534 46 326 0.0 0.0 0.00 0.00 0.00 77 1014.5
20260509071032 45 327 0.0 0.0 0.00 0.00 0.00 78 1014.6
20260509070529 45 329 0.0 0.0 0.00 0.00 0.00 77 1014.7
20260509070025 45 330 0.0 0.0 0.00 0.00 0.00 78 1014.6
20260509065520 45 333 0.0 0.0 0.00 0.00 0.00 78 1014.8
20260509065017 44 333 0.0 0.0 0.00 0.00 0.00 77 1014.8
20260509064515 44 341 0.0 0.0 0.00 0.00 0.00 78 1014.7
20260509064013 44 35 0.0 0.0 0.00 0.00 0.00 78 1014.8
20260509063508 44 330 0.0 0.0 0.00 0.00 0.00 77 1014.8
20260509063005 44 330 0.0 0.0 0.00 0.00 0.00 77 1014.7
20260509062502 44 330 0.0 0.0 0.00 0.00 0.00 78 1014.9
20260509062000 44 330 0.0 0.0 0.00 0.00 0.00 78 1015.1
20260509061457 44 330 0.0 0.0 0.00 0.00 0.00 78 1015.0